Weather History for PAEI - September, 2013

Change the Weather History Date:

Thursday, September 12, 2013

  Actual Average Record
Temperature  
Mean Temperature 48 °F -  
Max Temperature 62 °F 56 °F 80 °F (1965)
Min Temperature 35 °F 38 °F 22 °F (2012)
Degree Days  
Heating Degree Days 16    
Moisture  
Dew Point 40 °F    
Average Humidity 91    
Maximum Humidity 100    
Minimum Humidity 47    
Precipitation  
Precipitation 0.07 in - - ()
Sea Level Pressure  
Sea Level Pressure 29.91 in    
Wind  
Wind Speed 5 mph (SSE)    
Max Wind Speed 13 mph    
Max Gust Speed -    
Visibility 7 miles    
Events      
Averages and records for this station are not official NWS values.
T = Trace of Precipitation, MM = Missing Value Source: NWS Daily Summary

Daily Weather History Graph

Daily Weather History Graph

Search for Another Location

Airport or City:

Trip Planner

Search our weather history database for the weather conditions in past years. The results will help you decide how hot, cold, wet, or windy it might be!

Date:

Astronomy

Sep. 12, 2013 Rise Set
Actual Time 7:03 AM AKDT 8:24 PM AKDT
Civil Twilight 6:12 AM AKDT 9:14 PM AKDT
Nautical Twilight 5:07 AM AKDT 10:18 PM AKDT
Astronomical Twilight 3:41 AM AKDT 11:41 PM AKDT
Moon 5:15 PM AKDT (9/12) 10:56 PM AKDT (9/12)
Length of Visible Light 15h 01m
Length of Day
13h 20m
First Quarter, 51% of the Moon is Illuminated
Sep 12
First Quarter
Sep 19
Full
Sep 26
Last Quarter
Oct 4
New
Oct 11
First Quarter

Hourly Weather History & Observations

Time (AKDT) Temp. Windchill Dew Point Humidity Pressure Visibility Wind Dir Wind Speed Gust Speed Precip Events Conditions
12:33 AM 48.2 °F - 46.4 °F 93% 29.83 in 10.0 mi West 12.7 mph - N/A   Overcast
2:58 AM 45.3 °F - 43.7 °F 94% 29.89 in 10.0 mi Variable 1.2 mph - N/A   Partly Cloudy
3:21 AM 41.0 °F 36.4 °F 39.2 °F 93% 29.90 in 3.0 mi South 6.9 mph - N/A   Clear
3:31 AM 41.0 °F - 41.0 °F 100% 29.90 in 8.0 mi Calm Calm - N/A   Clear
3:36 AM 42.8 °F - 41.0 °F 93% 29.90 in 9.0 mi Calm Calm - N/A   Clear
3:41 AM 41.0 °F 38.0 °F 41.0 °F 100% 29.90 in 9.0 mi Variable 4.6 mph - N/A   Clear
3:46 AM 41.0 °F 38.0 °F 41.0 °F 100% 29.90 in 5.0 mi South 4.6 mph - N/A   Clear
3:51 AM 41.0 °F - 39.2 °F 93% 29.91 in 3.0 mi Calm Calm - N/A   Clear
3:56 AM 41.0 °F - 41.0 °F 100% 29.91 in 5.0 mi Calm Calm - N/A   Clear
3:58 AM 41.5 °F - 40.8 °F 97% 29.91 in 6.0 mi Calm Calm - N/A   Clear
4:03 AM 41.0 °F - 41.0 °F 100% 29.91 in 6.0 mi Calm Calm - N/A   Clear
4:08 AM 41.0 °F - 41.0 °F 100% 29.91 in 4.0 mi Calm Calm - N/A   Clear
4:13 AM 41.0 °F 38.0 °F 39.2 °F 93% 29.91 in 2.0 mi Variable 4.6 mph - N/A   Clear
4:18 AM 39.2 °F 37.0 °F 37.4 °F 93% 29.91 in 1.5 mi SSE 3.5 mph - N/A   Clear
4:33 AM 37.4 °F 32.8 °F 37.4 °F 100% 29.91 in 1.5 mi SSE 5.8 mph - N/A   Clear
4:38 AM 37.4 °F 32.1 °F 37.4 °F 100% 29.91 in 2.0 mi SSE 6.9 mph - N/A   Clear
4:43 AM 37.4 °F 33.8 °F 37.4 °F 100% 29.91 in 2.5 mi Variable 4.6 mph - N/A   Clear
4:48 AM 37.4 °F 32.8 °F 37.4 °F 100% 29.91 in 4.0 mi South 5.8 mph - N/A   Clear
4:58 AM 37.4 °F 32.1 °F 36.7 °F 97% 29.92 in 4.0 mi South 6.9 mph - N/A   Clear
5:08 AM 37.4 °F 32.1 °F 35.6 °F 93% 29.92 in 1.5 mi Variable 6.9 mph - N/A   Clear
5:13 AM 37.4 °F 32.1 °F 35.6 °F 93% 29.92 in 1.0 mi South 6.9 mph - N/A   Clear
5:18 AM 37.4 °F 32.8 °F 37.4 °F 100% 29.92 in 1.8 mi South 5.8 mph - N/A   Clear
5:22 AM 37.4 °F 31.4 °F 37.4 °F 100% 29.92 in 3.0 mi SSE 8.1 mph - N/A   Partly Cloudy
5:27 AM 37.4 °F 31.4 °F 37.4 °F 100% 29.92 in 5.0 mi SSE 8.1 mph - N/A   Scattered Clouds
5:32 AM 37.4 °F 31.4 °F 37.4 °F 100% 29.92 in 7.0 mi South 8.1 mph - N/A   Scattered Clouds
5:37 AM 37.4 °F 32.1 °F 37.4 °F 100% 29.92 in 5.0 mi Variable 6.9 mph - N/A   Partly Cloudy
5:47 AM 37.4 °F 34.9 °F 37.4 °F 100% 29.93 in 9.0 mi Variable 3.5 mph - N/A   Partly Cloudy
5:52 AM 37.4 °F 33.8 °F 37.4 °F 100% 29.93 in 5.0 mi Variable 4.6 mph - N/A   Partly Cloudy
5:57 AM 37.4 °F 31.4 °F 37.4 °F 100% 29.93 in 5.0 mi SE 8.1 mph - N/A   Partly Cloudy
5:58 AM 38.1 °F 32.9 °F 37.0 °F 96% 29.93 in 5.0 mi Variable 6.9 mph - N/A   Partly Cloudy
6:03 AM 37.4 °F 32.8 °F 37.4 °F 100% 29.93 in 7.0 mi Variable 5.8 mph - N/A   Partly Cloudy
6:08 AM 37.4 °F 32.8 °F 35.6 °F 93% 29.93 in 6.0 mi Variable 5.8 mph - N/A   Scattered Clouds
6:13 AM 37.4 °F 33.8 °F 35.6 °F 93% 29.93 in 5.0 mi Variable 4.6 mph - N/A   Mostly Cloudy
6:18 AM 37.4 °F 32.8 °F 35.6 °F 93% 29.93 in 7.0 mi SSE 5.8 mph - N/A   Mostly Cloudy
6:23 AM 37.4 °F 33.8 °F 35.6 °F 93% 29.93 in 10.0 mi SSE 4.6 mph - N/A   Mostly Cloudy
6:28 AM 37.4 °F 32.8 °F 35.6 °F 93% 29.93 in 3.0 mi Variable 5.8 mph - N/A   Scattered Clouds
6:33 AM 35.6 °F 31.7 °F 35.6 °F 100% 29.93 in 2.0 mi Variable 4.6 mph - N/A   Scattered Clouds
6:38 AM 35.6 °F 31.7 °F 35.6 °F 100% 29.93 in 4.0 mi Variable 4.6 mph - N/A   Partly Cloudy
6:43 AM 37.4 °F 33.8 °F 35.6 °F 93% 29.93 in 10.0 mi Variable 4.6 mph - N/A   Partly Cloudy
6:58 AM 36.9 °F 33.1 °F 35.6 °F 95% 29.95 in 10.0 mi Variable 4.6 mph - N/A   Scattered Clouds
7:58 AM 37.0 °F 33.3 °F 35.8 °F 95% 29.95 in 10.0 mi Variable 4.6 mph - N/A   Scattered Clouds
8:58 AM 39.9 °F - 38.3 °F 94% 29.95 in 10.0 mi Calm Calm - N/A   Clear
9:58 AM 45.3 °F - 42.6 °F 90% 29.95 in 10.0 mi Calm Calm - N/A   Scattered Clouds
10:58 AM 49.8 °F - 44.4 °F 82% 29.94 in 10.0 mi Calm Calm - N/A   Scattered Clouds
11:58 AM 53.4 °F - 44.6 °F 72% 29.93 in 10.0 mi East 4.6 mph - N/A   Scattered Clouds
12:58 PM 55.4 °F - 44.8 °F 67% 29.92 in 10.0 mi ESE 3.5 mph - N/A   Scattered Clouds
1:58 PM 59.4 °F - 44.4 °F 58% 29.91 in 10.0 mi ESE 6.9 mph - N/A   Scattered Clouds
2:58 PM 60.6 °F - 44.2 °F 55% 29.90 in 10.0 mi East 8.1 mph - N/A   Clear
3:58 PM 61.9 °F - 43.5 °F 51% 29.88 in 10.0 mi SE 5.8 mph - N/A   Clear
4:58 PM 62.1 °F - 41.5 °F 47% 29.87 in 10.0 mi East 1.2 mph - N/A   Clear
5:58 PM 59.4 °F - 49.1 °F 69% 29.86 in 10.0 mi North 4.6 mph - N/A   Clear
6:58 PM 57.9 °F - 49.8 °F 74% 29.84 in 10.0 mi Calm Calm - N/A   Clear
7:58 PM 53.4 °F - 49.8 °F 88% 29.84 in 10.0 mi Calm Calm - N/A   Clear
8:58 PM 51.4 °F - 47.3 °F 86% 29.83 in 10.0 mi Calm Calm - N/A   Clear
9:58 PM 46.2 °F 45.0 °F 45.1 °F 96% 29.83 in 10.0 mi Variable 3.5 mph - N/A   Partly Cloudy
10:58 PM 43.5 °F 40.1 °F 41.5 °F 93% 29.84 in 10.0 mi SE 5.8 mph - N/A   Scattered Clouds
11:58 PM 42.8 °F - 39.9 °F 90% 29.85 in 10.0 mi Calm Calm - N/A   Clear